AFR27RN LFPG-LEBL

Flight info

Callsign AFR27RN
Flight time 1h 26m
Altitude 39000
Route ERIXU DCT ETAMO DCT VALKU DCT ATSUP DCT MINSO DCT DEGOL DCT PPG DCT ALBER
Aircraft A321/M-SDE2E3FGIJ1RWY/HB1

Departure

Time 2026-05-06 09:37
Airport Charles de Gaulle International Airport (LFPG)

Arrival

Time 2026-05-06 11:03
Airport Josep Tarradellas Barcelona-El Prat Airport (LEBL)
Time Latitude Longitude Altitude Speed Heading
2026-05-06 09:24 49.00688 2.58026 354 ft 0 kts 254°
2026-05-06 09:25 49.00688 2.58028 354 ft 2 kts 254°
2026-05-06 09:25 49.00693 2.58066 361 ft 4 kts 265°
2026-05-06 09:25 49.00692 2.58106 354 ft 4 kts 289°
2026-05-06 09:25 49.00680 2.58134 354 ft 3 kts 348°
2026-05-06 09:26 49.00675 2.58136 362 ft 0 kts 355°
2026-05-06 09:27 49.00676 2.58136 362 ft 1 kts 355°
2026-05-06 09:27 49.00693 2.58134 362 ft 4 kts 356°
2026-05-06 09:28 49.00752 2.58126 359 ft 13 kts 349°
2026-05-06 09:28 49.00812 2.58010 354 ft 16 kts 272°
2026-05-06 09:28 49.00805 2.57858 358 ft 13 kts 265°
2026-05-06 09:28 49.00798 2.57731 354 ft 13 kts 265°
2026-05-06 09:29 49.00790 2.57564 356 ft 19 kts 268°
2026-05-06 09:29 49.00778 2.57358 359 ft 17 kts 265°
2026-05-06 09:29 49.00742 2.57236 354 ft 11 kts 210°
2026-05-06 09:29 49.00691 2.57181 359 ft 7 kts 237°
2026-05-06 09:30 49.00676 2.57125 357 ft 5 kts 252°
2026-05-06 09:30 49.00666 2.57072 361 ft 6 kts 256°
2026-05-06 09:30 49.00657 2.56998 357 ft 9 kts 262°
2026-05-06 09:30 49.00650 2.56889 354 ft 10 kts 265°
2026-05-06 09:31 49.00643 2.56762 358 ft 14 kts 264°
2026-05-06 09:31 49.00634 2.56615 360 ft 14 kts 265°
2026-05-06 09:31 49.00626 2.56467 354 ft 14 kts 265°
2026-05-06 09:31 49.00618 2.56323 354 ft 13 kts 266°
2026-05-06 09:32 49.00612 2.56174 357 ft 15 kts 266°
2026-05-06 09:32 49.00589 2.56018 360 ft 15 kts 250°
2026-05-06 09:32 49.00569 2.55870 357 ft 14 kts 264°
2026-05-06 09:32 49.00560 2.55705 358 ft 17 kts 265°
2026-05-06 09:33 49.00541 2.55536 361 ft 16 kts 240°
2026-05-06 09:33 49.00451 2.55472 358 ft 14 kts 175°
2026-05-06 09:33 49.00357 2.55510 354 ft 13 kts 163°
2026-05-06 09:33 49.00273 2.55548 359 ft 12 kts 163°
2026-05-06 09:34 49.00172 2.55592 358 ft 17 kts 164°
2026-05-06 09:34 49.00061 2.55640 356 ft 16 kts 164°
2026-05-06 09:34 48.99958 2.55694 354 ft 15 kts 149°
2026-05-06 09:34 48.99898 2.55788 354 ft 10 kts 152°
2026-05-06 09:35 48.99830 2.55817 355 ft 10 kts 147°
2026-05-06 09:35 48.99803 2.55902 361 ft 9 kts 100°
2026-05-06 09:35 48.99789 2.55991 356 ft 11 kts 114°
2026-05-06 09:35 48.99715 2.56033 357 ft 12 kts 176°
2026-05-06 09:36 48.99637 2.56051 360 ft 11 kts 152°
2026-05-06 09:36 48.99620 2.56226 360 ft 32 kts 85°
2026-05-06 09:36 48.99661 2.56958 358 ft 103 kts 85°
2026-05-06 09:36 48.99735 2.58336 356 ft 156 kts 85°
2026-05-06 09:37 48.99811 2.60070 818 ft 162 kts 84°
2026-05-06 09:37 48.99895 2.61798 1473 ft 163 kts 83°
2026-05-06 09:37 48.99985 2.63499 2146 ft 161 kts 82°
2026-05-06 09:37 49.00080 2.65205 2755 ft 163 kts 82°
2026-05-06 09:38 49.00176 2.66928 3364 ft 164 kts 82°
2026-05-06 09:38 49.00273 2.68688 3806 ft 175 kts 82°
2026-05-06 09:38 49.00384 2.70653 4043 ft 196 kts 82°
2026-05-06 09:38 49.00504 2.72834 4245 ft 218 kts 83°
2026-05-06 09:39 49.00635 2.75270 4499 ft 243 kts 83°
2026-05-06 09:39 49.00734 2.77960 4900 ft 264 kts 92°
2026-05-06 09:39 49.00467 2.80780 5623 ft 272 kts 97°
2026-05-06 09:39 49.00159 2.83638 6423 ft 274 kts 98°
2026-05-06 09:40 48.99848 2.86513 7179 ft 277 kts 97°
2026-05-06 09:40 48.99534 2.89416 7924 ft 280 kts 98°
2026-05-06 09:40 48.98916 2.95193 9147 ft 281 kts 98°
2026-05-06 09:41 48.98343 2.98078 9709 ft 289 kts 120°
2026-05-06 09:41 48.97030 3.00405 10358 ft 294 kts 143°
2026-05-06 09:41 48.95187 3.01842 10562 ft 315 kts 166°
2026-05-06 09:41 48.92955 3.01979 10914 ft 311 kts 187°
2026-05-06 09:42 48.90790 3.01614 11219 ft 324 kts 192°
2026-05-06 09:42 48.88745 3.00190 11717 ft 330 kts 220°
2026-05-06 09:42 48.87374 2.97388 12279 ft 336 kts 248°
2026-05-06 09:42 48.86734 2.93974 12992 ft 337 kts 258°
2026-05-06 09:43 48.86260 2.90482 13677 ft 339 kts 258°
2026-05-06 09:43 48.85785 2.86962 14301 ft 341 kts 258°
2026-05-06 09:43 48.85303 2.83410 14905 ft 345 kts 256°
2026-05-06 09:43 48.84622 2.79907 15495 ft 348 kts 250°
2026-05-06 09:44 48.83733 2.76474 16074 ft 351 kts 246°
2026-05-06 09:44 48.82734 2.73069 16648 ft 354 kts 245°
2026-05-06 09:44 48.81696 2.69656 17208 ft 357 kts 245°
2026-05-06 09:44 48.80660 2.66210 17753 ft 361 kts 245°
2026-05-06 09:45 48.79638 2.62709 18283 ft 364 kts 246°
2026-05-06 09:45 48.78633 2.59171 18792 ft 367 kts 246°
2026-05-06 09:45 48.77634 2.55598 19283 ft 370 kts 246°
2026-05-06 09:45 48.76627 2.51975 19757 ft 373 kts 247°
2026-05-06 09:46 48.75618 2.48336 20236 ft 377 kts 246°
2026-05-06 09:46 48.74598 2.44668 20692 ft 380 kts 246°
2026-05-06 09:46 48.73314 2.41160 21128 ft 382 kts 233°
2026-05-06 09:46 48.71560 2.38133 21553 ft 384 kts 221°
2026-05-06 09:47 48.69416 2.35725 21958 ft 386 kts 210°
2026-05-06 09:47 48.67093 2.33649 22358 ft 388 kts 210°
2026-05-06 09:47 48.64763 2.31558 22743 ft 390 kts 210°
2026-05-06 09:47 48.62454 2.29474 23118 ft 393 kts 210°
2026-05-06 09:48 48.60100 2.27352 23479 ft 395 kts 210°
2026-05-06 09:48 48.57725 2.25219 23837 ft 397 kts 210°
2026-05-06 09:48 48.55339 2.23081 24192 ft 400 kts 210°
2026-05-06 09:48 48.52862 2.21171 24535 ft 401 kts 200°
2026-05-06 09:49 48.50201 2.19952 24891 ft 401 kts 190°
2026-05-06 09:49 48.47431 2.19486 25253 ft 401 kts 179°
2026-05-06 09:49 48.44635 2.19660 25610 ft 402 kts 175°
2026-05-06 09:49 48.41834 2.19906 25973 ft 404 kts 175°
2026-05-06 09:50 48.39016 2.20144 26341 ft 406 kts 176°
2026-05-06 09:50 48.36193 2.20372 26702 ft 407 kts 176°
2026-05-06 09:50 48.33356 2.20596 27059 ft 409 kts 176°
2026-05-06 09:50 48.30514 2.20822 27418 ft 410 kts 176°
2026-05-06 09:51 48.27677 2.21261 27750 ft 411 kts 170°
2026-05-06 09:51 48.24857 2.21942 28087 ft 412 kts 170°
2026-05-06 09:51 48.22047 2.22628 28395 ft 414 kts 170°
2026-05-06 09:51 48.19191 2.23327 28715 ft 416 kts 170°
2026-05-06 09:52 48.16329 2.24027 29032 ft 417 kts 170°
2026-05-06 09:52 48.13463 2.24726 29339 ft 419 kts 170°
2026-05-06 09:52 48.10575 2.25431 29636 ft 420 kts 170°
2026-05-06 09:52 48.07683 2.26019 29933 ft 422 kts 175°
2026-05-06 09:53 48.04725 2.26228 30070 ft 427 kts 176°
2026-05-06 09:53 48.01731 2.26417 30200 ft 432 kts 176°
2026-05-06 09:53 47.98751 2.26599 30375 ft 436 kts 177°
2026-05-06 09:53 47.95710 2.26782 30587 ft 438 kts 177°
2026-05-06 09:54 47.92627 2.26972 30793 ft 440 kts 177°
2026-05-06 09:54 47.89594 2.27162 30987 ft 442 kts 176°
2026-05-06 09:54 47.86522 2.27357 31260 ft 441 kts 176°
2026-05-06 09:54 47.83453 2.27556 31544 ft 441 kts 177°
2026-05-06 09:55 47.80382 2.27755 31799 ft 441 kts 177°
2026-05-06 09:55 47.77307 2.27954 32057 ft 441 kts 177°
2026-05-06 09:55 47.74241 2.28147 32316 ft 441 kts 177°
2026-05-06 09:55 47.71176 2.28336 32576 ft 441 kts 177°
2026-05-06 09:56 47.68102 2.28527 32829 ft 441 kts 177°
2026-05-06 09:56 47.65036 2.28717 33068 ft 441 kts 177°
2026-05-06 09:56 47.61962 2.28908 33305 ft 441 kts 177°
2026-05-06 09:56 47.58891 2.29099 33558 ft 441 kts 177°
2026-05-06 09:57 47.55817 2.29293 33780 ft 441 kts 177°
2026-05-06 09:57 47.52753 2.29489 33999 ft 441 kts 177°
2026-05-06 09:57 47.49682 2.29683 34229 ft 442 kts 178°
2026-05-06 09:57 47.46607 2.29877 34472 ft 441 kts 178°
2026-05-06 09:58 47.43544 2.30067 34703 ft 441 kts 178°
2026-05-06 09:58 47.40481 2.30256 34948 ft 440 kts 178°
2026-05-06 09:58 47.37470 2.30445 35158 ft 439 kts 178°
2026-05-06 09:58 47.34415 2.30634 35374 ft 439 kts 178°
2026-05-06 09:59 47.31364 2.30826 35574 ft 439 kts 178°
2026-05-06 09:59 47.28313 2.31019 35785 ft 439 kts 178°
2026-05-06 09:59 47.25263 2.31206 35986 ft 438 kts 178°
2026-05-06 09:59 47.22220 2.31389 36168 ft 438 kts 178°
2026-05-06 10:00 47.19181 2.31576 36338 ft 438 kts 178°
2026-05-06 10:00 47.16136 2.31765 36496 ft 438 kts 179°
2026-05-06 10:00 47.13089 2.31957 36648 ft 438 kts 179°
2026-05-06 10:00 47.10039 2.32149 36816 ft 438 kts 179°
2026-05-06 10:01 47.03944 2.32525 36900 ft 438 kts 179°
2026-05-06 10:01 46.97866 2.32892 36894 ft 436 kts 179°
2026-05-06 10:02 46.91816 2.33264 36898 ft 435 kts 179°
2026-05-06 10:02 46.85781 2.33718 36900 ft 434 kts 174°
2026-05-06 10:03 46.79997 2.36065 36900 ft 437 kts 160°
2026-05-06 10:03 46.74353 2.39364 36896 ft 436 kts 160°
2026-05-06 10:04 46.68719 2.42607 36894 ft 435 kts 161°
2026-05-06 10:04 46.63086 2.45838 36902 ft 435 kts 161°
2026-05-06 10:05 46.57572 2.49007 36896 ft 435 kts 160°
2026-05-06 10:05 46.51936 2.52246 36895 ft 435 kts 161°
2026-05-06 10:06 46.46310 2.55464 36897 ft 435 kts 161°
2026-05-06 10:06 46.40683 2.58685 36907 ft 435 kts 161°
2026-05-06 10:07 46.35056 2.61887 36908 ft 435 kts 161°
2026-05-06 10:07 46.29428 2.65087 36911 ft 434 kts 161°
2026-05-06 10:08 46.23804 2.68271 36903 ft 434 kts 161°
2026-05-06 10:08 46.18177 2.71451 36907 ft 434 kts 161°
2026-05-06 10:09 46.12556 2.74625 36909 ft 434 kts 161°
2026-05-06 10:09 46.06957 2.77783 36906 ft 434 kts 161°
2026-05-06 10:10 46.01335 2.80947 36919 ft 434 kts 161°
2026-05-06 10:10 45.95700 2.84049 36913 ft 433 kts 163°
2026-05-06 10:11 45.90048 2.87015 36929 ft 432 kts 163°
2026-05-06 10:11 45.84395 2.89954 36922 ft 431 kts 163°
2026-05-06 10:12 45.78757 2.92899 36922 ft 431 kts 163°
2026-05-06 10:12 45.73999 2.94862 36914 ft 426 kts 175°
2026-05-06 10:13 45.68127 2.95091 36915 ft 422 kts 184°
2026-05-06 10:13 45.62241 2.94931 36922 ft 423 kts 184°
2026-05-06 10:14 45.56364 2.94789 36929 ft 423 kts 184°
2026-05-06 10:14 45.50473 2.94636 36928 ft 422 kts 184°
2026-05-06 10:15 45.44637 2.94473 36929 ft 422 kts 184°
2026-05-06 10:15 45.38761 2.94311 36920 ft 422 kts 184°
2026-05-06 10:16 45.32881 2.94160 36934 ft 422 kts 184°
2026-05-06 10:16 45.27016 2.94014 36934 ft 421 kts 184°
2026-05-06 10:17 45.21150 2.93866 36934 ft 421 kts 184°
2026-05-06 10:17 45.15295 2.93710 36936 ft 421 kts 184°
2026-05-06 10:18 45.09456 2.93556 36943 ft 420 kts 184°
2026-05-06 10:18 45.03652 2.93412 36942 ft 420 kts 184°
2026-05-06 10:19 44.97815 2.93257 36943 ft 420 kts 184°
2026-05-06 10:19 44.92006 2.93106 36943 ft 419 kts 184°
2026-05-06 10:20 44.86176 2.92948 36943 ft 419 kts 185°
2026-05-06 10:20 44.80344 2.92693 36952 ft 418 kts 186°
2026-05-06 10:21 44.74533 2.92228 36953 ft 418 kts 187°
2026-05-06 10:21 44.68730 2.91735 36958 ft 418 kts 186°
2026-05-06 10:22 44.62920 2.91297 36961 ft 418 kts 186°
2026-05-06 10:22 44.57114 2.90886 36962 ft 417 kts 186°
2026-05-06 10:23 44.51314 2.90473 36962 ft 418 kts 187°
2026-05-06 10:23 44.45517 2.90052 36961 ft 418 kts 187°
2026-05-06 10:24 44.39714 2.89624 36967 ft 417 kts 186°
2026-05-06 10:24 44.33914 2.89206 36971 ft 417 kts 186°
2026-05-06 10:25 44.28158 2.88791 36970 ft 417 kts 187°
2026-05-06 10:25 44.22370 2.88375 36978 ft 416 kts 187°
2026-05-06 10:26 44.16671 2.87970 36983 ft 416 kts 187°
2026-05-06 10:26 44.10922 2.87561 36983 ft 416 kts 187°
2026-05-06 10:27 44.05141 2.87150 36979 ft 416 kts 187°
2026-05-06 10:27 43.99358 2.86731 36980 ft 416 kts 187°
2026-05-06 10:28 43.93593 2.86314 36977 ft 413 kts 187°
2026-05-06 10:28 43.87854 2.85910 36981 ft 412 kts 187°
2026-05-06 10:29 43.82117 2.85508 36980 ft 412 kts 187°
2026-05-06 10:29 43.76380 2.85138 36986 ft 413 kts 186°
2026-05-06 10:30 43.70622 2.85167 36990 ft 415 kts 183°
2026-05-06 10:30 43.64847 2.85372 36989 ft 415 kts 183°
2026-05-06 10:31 43.59081 2.85518 36989 ft 414 kts 184°
2026-05-06 10:31 43.53325 2.85588 36958 ft 414 kts 184°
2026-05-06 10:32 43.50456 2.85617 36472 ft 414 kts 184°
2026-05-06 10:32 43.47578 2.85654 35843 ft 412 kts 184°
2026-05-06 10:32 43.44771 2.85696 35532 ft 406 kts 185°
2026-05-06 10:32 43.41900 2.85739 35279 ft 408 kts 185°
2026-05-06 10:33 43.39099 2.85779 35037 ft 413 kts 185°
2026-05-06 10:33 43.36194 2.85817 34785 ft 418 kts 185°
2026-05-06 10:33 43.33284 2.85857 34534 ft 417 kts 185°
2026-05-06 10:33 43.30387 2.85900 34281 ft 416 kts 185°
2026-05-06 10:34 43.27499 2.85948 34033 ft 414 kts 185°
2026-05-06 10:34 43.24626 2.85998 33783 ft 412 kts 185°
2026-05-06 10:34 43.21761 2.86046 33531 ft 410 kts 185°
2026-05-06 10:34 43.18919 2.86091 33281 ft 407 kts 185°
2026-05-06 10:35 43.16091 2.86132 33030 ft 405 kts 185°
2026-05-06 10:35 43.13280 2.86170 32779 ft 403 kts 185°
2026-05-06 10:35 43.10481 2.86206 32528 ft 401 kts 185°
2026-05-06 10:35 43.07699 2.86245 32279 ft 399 kts 186°
2026-05-06 10:36 43.04932 2.86285 32028 ft 397 kts 186°
2026-05-06 10:36 43.02175 2.86325 31778 ft 395 kts 186°
2026-05-06 10:36 42.99435 2.86366 31518 ft 392 kts 186°
2026-05-06 10:36 42.96726 2.86405 31070 ft 386 kts 186°
2026-05-06 10:37 42.94061 2.86444 30579 ft 381 kts 186°
2026-05-06 10:37 42.91436 2.86486 30103 ft 375 kts 186°
2026-05-06 10:37 42.88841 2.86524 29630 ft 369 kts 186°
2026-05-06 10:37 42.86286 2.86560 29166 ft 364 kts 186°
2026-05-06 10:38 42.83807 2.86594 28719 ft 359 kts 186°
2026-05-06 10:38 42.81336 2.86629 28275 ft 352 kts 186°
2026-05-06 10:38 42.78909 2.86668 27840 ft 346 kts 186°
2026-05-06 10:38 42.76525 2.86705 27414 ft 340 kts 187°
2026-05-06 10:39 42.74144 2.86621 26983 ft 351 kts 192°
2026-05-06 10:39 42.71647 2.86301 26514 ft 367 kts 192°
2026-05-06 10:39 42.69083 2.85985 26037 ft 370 kts 191°
2026-05-06 10:39 42.66515 2.85683 25584 ft 369 kts 191°
2026-05-06 10:40 42.63964 2.85393 25133 ft 367 kts 191°
2026-05-06 10:40 42.61420 2.85104 24680 ft 365 kts 191°
2026-05-06 10:40 42.58900 2.84812 24241 ft 363 kts 191°
2026-05-06 10:40 42.56380 2.84516 23783 ft 362 kts 191°
2026-05-06 10:41 42.53878 2.84224 23335 ft 359 kts 191°
2026-05-06 10:41 42.51394 2.83938 22875 ft 358 kts 191°
2026-05-06 10:41 42.48915 2.83652 22429 ft 357 kts 191°
2026-05-06 10:41 42.46450 2.83363 21974 ft 355 kts 191°
2026-05-06 10:42 42.44015 2.82936 21511 ft 351 kts 195°
2026-05-06 10:42 42.41620 2.82342 21049 ft 349 kts 196°
2026-05-06 10:42 42.39237 2.81753 20593 ft 347 kts 195°
2026-05-06 10:42 42.36860 2.81166 20119 ft 346 kts 195°
2026-05-06 10:43 42.34501 2.80585 19666 ft 344 kts 195°
2026-05-06 10:43 42.32138 2.80006 19205 ft 344 kts 195°
2026-05-06 10:43 42.29795 2.79432 18746 ft 343 kts 195°
2026-05-06 10:44 42.25114 2.78288 17842 ft 341 kts 195°
2026-05-06 10:44 42.22783 2.77720 17393 ft 339 kts 195°
2026-05-06 10:44 42.20462 2.77155 16944 ft 338 kts 195°
2026-05-06 10:44 42.18158 2.76591 16516 ft 336 kts 195°
2026-05-06 10:45 42.15863 2.76027 16085 ft 335 kts 195°
2026-05-06 10:45 42.13606 2.75473 15660 ft 334 kts 194°
2026-05-06 10:45 42.11329 2.74915 15227 ft 332 kts 194°
2026-05-06 10:45 42.09058 2.74357 14798 ft 331 kts 194°
2026-05-06 10:46 42.06805 2.73806 14400 ft 327 kts 194°
2026-05-06 10:46 42.04640 2.73285 14253 ft 304 kts 194°
2026-05-06 10:46 42.02610 2.72798 13761 ft 292 kts 194°
2026-05-06 10:46 42.00620 2.72316 13232 ft 291 kts 194°
2026-05-06 10:47 41.98631 2.71831 12817 ft 290 kts 194°
2026-05-06 10:47 41.96649 2.71349 12430 ft 288 kts 194°
2026-05-06 10:47 41.94679 2.70871 12048 ft 287 kts 194°
2026-05-06 10:47 41.92714 2.70394 11664 ft 286 kts 194°
2026-05-06 10:48 41.90753 2.69918 11286 ft 285 kts 194°
2026-05-06 10:48 41.88805 2.69444 10903 ft 284 kts 194°
2026-05-06 10:48 41.86864 2.68971 10517 ft 282 kts 193°
2026-05-06 10:48 41.84936 2.68501 10197 ft 279 kts 193°
2026-05-06 10:49 41.83040 2.68038 10128 ft 281 kts 193°
2026-05-06 10:49 41.81088 2.67548 9911 ft 281 kts 194°
2026-05-06 10:49 41.79201 2.67049 9783 ft 280 kts 194°
2026-05-06 10:49 41.77329 2.66548 9662 ft 280 kts 194°
2026-05-06 10:50 41.75414 2.66032 9535 ft 280 kts 194°
2026-05-06 10:50 41.73502 2.65516 9412 ft 284 kts 194°
2026-05-06 10:50 41.71471 2.64959 9279 ft 307 kts 194°
2026-05-06 10:50 41.69358 2.64385 9014 ft 311 kts 194°
2026-05-06 10:51 41.67235 2.63816 8715 ft 311 kts 193°
2026-05-06 10:51 41.65129 2.63253 8426 ft 304 kts 193°
2026-05-06 10:51 41.63096 2.62712 8120 ft 290 kts 193°
2026-05-06 10:51 41.61171 2.62207 7822 ft 275 kts 193°
2026-05-06 10:52 41.59341 2.61725 7508 ft 262 kts 193°
2026-05-06 10:52 41.57635 2.61276 7232 ft 250 kts 193°
2026-05-06 10:52 41.55968 2.60835 6934 ft 240 kts 193°
2026-05-06 10:52 41.54344 2.60401 6631 ft 237 kts 193°
2026-05-06 10:53 41.52734 2.59970 6331 ft 234 kts 193°
2026-05-06 10:53 41.51150 2.59549 6052 ft 229 kts 193°
2026-05-06 10:53 41.49602 2.59139 5760 ft 225 kts 193°
2026-05-06 10:53 41.48131 2.58479 5458 ft 222 kts 208°
2026-05-06 10:54 41.46900 2.57297 5154 ft 216 kts 225°
2026-05-06 10:54 41.46009 2.55729 4881 ft 209 kts 240°
2026-05-06 10:54 41.45369 2.54007 4621 ft 203 kts 245°
2026-05-06 10:54 41.44792 2.52300 4363 ft 200 kts 245°
2026-05-06 10:55 41.44224 2.50609 4180 ft 200 kts 245°
2026-05-06 10:55 41.43657 2.48925 4004 ft 199 kts 245°
2026-05-06 10:55 41.43098 2.47265 3893 ft 198 kts 245°
2026-05-06 10:55 41.42553 2.45649 3789 ft 187 kts 245°
2026-05-06 10:56 41.42022 2.44078 3696 ft 186 kts 245°
2026-05-06 10:56 41.41493 2.42512 3610 ft 185 kts 245°
2026-05-06 10:56 41.40965 2.40951 3524 ft 185 kts 245°
2026-05-06 10:56 41.40438 2.39390 3423 ft 185 kts 245°
2026-05-06 10:57 41.39911 2.37832 3296 ft 184 kts 245°
2026-05-06 10:57 41.39402 2.36328 3188 ft 170 kts 245°
2026-05-06 10:57 41.38937 2.34956 3096 ft 166 kts 245°
2026-05-06 10:57 41.38467 2.33570 3023 ft 164 kts 245°
2026-05-06 10:58 41.37997 2.32184 3008 ft 164 kts 245°
2026-05-06 10:58 41.37528 2.30803 3008 ft 164 kts 245°
2026-05-06 10:58 41.37060 2.29423 2973 ft 164 kts 245°
2026-05-06 10:58 41.36591 2.28043 2822 ft 163 kts 245°
2026-05-06 10:59 41.36128 2.26678 2627 ft 159 kts 244°
2026-05-06 10:59 41.35834 2.25812 2496 ft 151 kts 244°
2026-05-06 10:59 41.35413 2.24576 2313 ft 144 kts 244°
2026-05-06 10:59 41.35003 2.23371 2118 ft 142 kts 244°
2026-05-06 11:00 41.34599 2.22182 1935 ft 141 kts 244°
2026-05-06 11:00 41.34060 2.20596 1690 ft 140 kts 244°
2026-05-06 11:00 41.33797 2.19813 1564 ft 140 kts 243°
2026-05-06 11:00 41.33396 2.18629 1347 ft 140 kts 243°
2026-05-06 11:01 41.33000 2.17465 1168 ft 141 kts 243°
2026-05-06 11:01 41.32599 2.16284 995 ft 140 kts 243°
2026-05-06 11:01 41.32195 2.15105 808 ft 140 kts 243°
2026-05-06 11:01 41.31789 2.13925 618 ft 140 kts 243°
2026-05-06 11:02 41.31389 2.12749 445 ft 139 kts 243°
2026-05-06 11:02 41.30986 2.11575 259 ft 140 kts 243°
2026-05-06 11:02 41.30586 2.10401 83 ft 139 kts 242°
2026-05-06 11:02 41.30199 2.09291 3 ft 121 kts 246°
2026-05-06 11:03 41.29955 2.08593 7 ft 60 kts 245°
2026-05-06 11:03 41.29810 2.08298 6 ft 26 kts 221°
2026-05-06 11:03 41.29720 2.08212 4 ft 10 kts 208°
2026-05-06 11:03 41.29646 2.08213 3 ft 11 kts 160°
2026-05-06 11:04 41.29556 2.08268 3 ft 19 kts 156°
2026-05-06 11:04 41.29432 2.08343 3 ft 20 kts 155°
2026-05-06 11:04 41.29305 2.08420 3 ft 20 kts 155°
2026-05-06 11:04 41.29179 2.08441 3 ft 19 kts 200°
2026-05-06 11:05 41.29070 2.08390 3 ft 10 kts 199°
2026-05-06 11:05 41.29063 2.08387 3 ft 0 kts 199°
2026-05-06 11:05 41.29046 2.08357 3 ft 10 kts 238°
2026-05-06 11:05 41.29009 2.08244 3 ft 14 kts 245°
2026-05-06 11:06 41.28987 2.08159 3 ft 7 kts 283°
2026-05-06 11:06 41.29024 2.08130 4 ft 6 kts 336°
2026-05-06 11:06 41.29045 2.08118 3 ft 2 kts 336°
2026-05-06 11:06 41.29046 2.08117 3 ft 0 kts 336°
2026-05-06 11:19 41.29046 2.08118 3 ft 0 kts 336°
2026-05-06 11:41 41.29045 2.08118 3 ft 0 kts 336°
2026-05-06 12:19 41.29044 2.08118 3 ft 0 kts 336°
2026-05-06 12:24 41.29044 2.08119 3 ft 0 kts 336°